Epoch 2010 Feb. 13.0 TT = JDT 2455240.5 T 2010 Jan. 31.07408 TT MPC q 0.7999560 (2000.0) P Q n 0.18232528 Peri. 118.03122 -0.85754520 -0.50688494 a 3.0801471 Node 31.74167 +0.39375615 -0.75646479 e 0.7402864 Incl. 9.59142 +0.33101710 -0.41331426 P 5.41
H = 19.0 G = 0.15 ※ 緑色の曲線は、m1 = 19.5 + 5 logΔ + 10.0 log r の光度曲線です。